Home > Weather > Al-Jamiliyah > Past weeks

Flag for Qatar Past Weather in Al-Jamiliyah, Qatar — Yesterday and Last 2 Weeks

Now
100 °F

Passing clouds.


Feels Like: 108 °F
Forecast: 86 / 107 °F
Wind: 9 mph from Northeast

Location: Doha International Airport

Current Time: Jun 29, 2016 at 3:55:16 PM

Latest Report: Jun 29, 2016 at 3:00 PM


Visibility: N/A

Pressure: 29.50 "Hg

Humidity: 37%

Dew Point: 70 °F

Location of Al-JamiliyahLocation

Past Weather in Al-Jamiliyah — Graph

°F

Al-Jamiliyah Temperature Yesterday

Maximum temperature yesterday: 109 °F (at 11:00 AM)
Minimum temperature yesterday: 91 °F (at 11:00 PM)
Average temperature yesterday: 101 °F

High & Low Weather Summary for the Past Weeks

 TemperatureHumidityPressure
High117 °F (Jun 27, 3:00 PM)67% (Jun 29, 7:00 AM)29.62 "Hg (Jun 29, 7:00 AM)
Low84 °F (Jun 16, 5:00 AM)1% (Jun 14, 2:00 PM)29.39 "Hg (Jun 27, 4:00 PM)
Average98 °F26%29.51 "Hg
* Reported Jun 14 2:00 PM — Jun 29 2:00 PM, Al-Jamiliyah, Weather by CustomWeather, © 2016

Note: Actual official high and low records may vary slightly from our data, if they occured in-between our weather recording intervals... More about our weather records

Advertising

Al-Jamiliyah Weather History for the Previous 24 Hours

Scroll right to see more
 ConditionsComfort  
Time TempWeatherWind HumidityBarometerVisibility
2:00 PM
Wed, Jun 29
102 °FClear.9 mph27%29.50 "Hg6 mi
1:00 PM99 °FClear.10 mph47%29.50 "Hg5 mi
12:00 PM100 °FClear.13 mph47%29.53 "Hg4 mi
11:00 AM102 °FClear.12 mph35%29.53 "Hg4 mi
10:00 AM104 °FClear.2 mph28%29.53 "Hg4 mi
9:00 AM100 °FClear.5 mph42%29.53 "Hg4 mi
8:00 AM95 °FHaze.10 mph63%29.53 "Hg3 mi
7:00 AM93 °FClear.7 mph67%29.53 "Hg4 mi
6:00 AM90 °FClear.No wind49%29.50 "Hg4 mi
5:30 AM90 °FClear.2 mph49%29.50 "Hg4 mi
4:00 AM91 °FClear.1 mph46%29.47 "Hg10 mi
3:00 AM93 °FClear.5 mph44%29.47 "Hg10 mi
2:00 AM95 °FClear.N/A41%29.47 "Hg5 mi
1:00 AM95 °FClear.7 mph47%29.47 "Hg5 mi
12:00 AM95 °FClear.2 mph41%29.47 "Hg4 mi
11:00 PM
Tue, Jun 28
91 °FClear.No wind49%29.47 "Hg5 mi
10:00 PM93 °FClear.2 mph59%29.50 "Hg10 mi
9:00 PM95 °FPassing clouds.5 mph53%29.50 "HgN/A
8:00 PM95 °FClear.3 mph56%29.47 "Hg10 mi
7:00 PM95 °FPassing clouds.3 mph53%29.47 "HgN/A
6:00 PM97 °FPassing clouds.5 mph50%29.45 "HgN/A
5:00 PM102 °FSunny.8 mph27%29.45 "Hg10 mi
4:00 PM104 °FSunny.14 mph24%29.45 "Hg10 mi
3:00 PM106 °FSunny.16 mph22%29.45 "Hg10 mi
Weather by CustomWeather, © 2016

See weather overviewHow to use our weather pages